FIN8KT EFHK-LFMN

Flight info

Callsign FIN8KT
Flight time 3h 0m
Altitude 36000
Route VALOX Y117 ROSAX DCT PIMEX P739 DEREX DCT GORPI DCT PESEL DCT VEVAS DCT IBAGA DCT DKB N869 TEDGO DCT SONOM/N0443F370 DCT GERSA/N0390F230 DCT SOSON DCT ODINA DCT ENOBA Z185 ASBOP/N0367F190 Z185 BORDI
Aircraft A321/M-SDE3FGHIRWY/LB1

Departure

Time 2026-04-23 13:22
Airport Helsinki Vantaa Airport (EFHK)

Arrival

Time 2026-04-23 16:22
Airport Nice-Côte d'Azur Airport (LFMN)
Time Latitude Longitude Altitude Speed Heading
2026-04-23 12:46 60.31787 24.97086 167 ft 0 kts 243°
2026-04-23 13:11 60.31790 24.97100 166 ft 3 kts 243°
2026-04-23 13:11 60.31799 24.97136 166 ft 3 kts 244°
2026-04-23 13:11 60.31807 24.97173 166 ft 3 kts 258°
2026-04-23 13:12 60.31808 24.97206 166 ft 3 kts 306°
2026-04-23 13:12 60.31800 24.97220 166 ft 2 kts 333°
2026-04-23 13:12 60.31785 24.97236 166 ft 2 kts 333°
2026-04-23 13:12 60.31782 24.97239 166 ft 0 kts 333°
2026-04-23 13:15 60.31785 24.97235 166 ft 2 kts 333°
2026-04-23 13:15 60.31825 24.97195 166 ft 10 kts 333°
2026-04-23 13:15 60.31905 24.97113 166 ft 14 kts 333°
2026-04-23 13:16 60.31993 24.97021 166 ft 15 kts 333°
2026-04-23 13:16 60.32084 24.96924 166 ft 15 kts 330°
2026-04-23 13:16 60.32176 24.96816 166 ft 16 kts 330°
2026-04-23 13:16 60.32245 24.96723 166 ft 10 kts 309°
2026-04-23 13:17 60.32227 24.96614 168 ft 8 kts 227°
2026-04-23 13:17 60.32175 24.96502 168 ft 14 kts 227°
2026-04-23 13:17 60.32092 24.96319 168 ft 20 kts 228°
2026-04-23 13:17 60.31998 24.96112 168 ft 20 kts 227°
2026-04-23 13:18 60.31905 24.95910 169 ft 20 kts 227°
2026-04-23 13:18 60.31811 24.95701 170 ft 20 kts 227°
2026-04-23 13:18 60.31717 24.95495 171 ft 20 kts 227°
2026-04-23 13:18 60.31623 24.95285 170 ft 21 kts 229°
2026-04-23 13:19 60.31524 24.95070 169 ft 21 kts 227°
2026-04-23 13:19 60.31422 24.94842 166 ft 17 kts 227°
2026-04-23 13:19 60.31335 24.94652 161 ft 20 kts 227°
2026-04-23 13:19 60.31236 24.94434 159 ft 22 kts 227°
2026-04-23 13:20 60.31133 24.94207 157 ft 23 kts 227°
2026-04-23 13:20 60.31055 24.94034 158 ft 13 kts 227°
2026-04-23 13:20 60.31030 24.93941 158 ft 7 kts 264°
2026-04-23 13:20 60.31041 24.93848 159 ft 7 kts 296°
2026-04-23 13:21 60.31074 24.93767 159 ft 8 kts 320°
2026-04-23 13:21 60.31127 24.93688 157 ft 10 kts 339°
2026-04-23 13:21 60.31181 24.93751 158 ft 9 kts 46°
2026-04-23 13:21 60.31248 24.93899 158 ft 32 kts 47°
2026-04-23 13:22 60.31566 24.94597 165 ft 100 kts 48°
2026-04-23 13:22 60.32171 24.95926 178 ft 155 kts 47°
2026-04-23 13:22 60.32979 24.97707 454 ft 175 kts 44°
2026-04-23 13:22 60.33796 24.99534 1138 ft 177 kts 44°
2026-04-23 13:23 60.34625 25.01387 1635 ft 184 kts 44°
2026-04-23 13:23 60.35540 25.03374 1875 ft 201 kts 43°
2026-04-23 13:23 60.36543 25.05563 2041 ft 224 kts 44°
2026-04-23 13:23 60.37654 25.07998 2379 ft 244 kts 44°
2026-04-23 13:24 60.38777 25.10611 3057 ft 250 kts 53°
2026-04-23 13:24 60.39282 25.14000 3782 ft 262 kts 89°
2026-04-23 13:24 60.38809 25.17608 4509 ft 271 kts 109°
2026-04-23 13:24 60.38030 25.21108 5246 ft 275 kts 112°
2026-04-23 13:25 60.37179 25.24584 5986 ft 278 kts 113°
2026-04-23 13:25 60.36308 25.28096 6708 ft 281 kts 112°
2026-04-23 13:25 60.35405 25.31618 7436 ft 285 kts 119°
2026-04-23 13:25 60.34084 25.34674 8089 ft 294 kts 138°
2026-04-23 13:26 60.32305 25.36782 8747 ft 302 kts 159°
2026-04-23 13:26 60.30238 25.37634 9377 ft 307 kts 179°
2026-04-23 13:26 60.28090 25.37637 9969 ft 311 kts 181°
2026-04-23 13:26 60.25906 25.37200 10348 ft 325 kts 194°
2026-04-23 13:27 60.23724 25.35601 10490 ft 343 kts 211°
2026-04-23 13:27 60.21749 25.32759 10621 ft 358 kts 229°
2026-04-23 13:27 60.20124 25.28900 10929 ft 365 kts 237°
2026-04-23 13:27 60.18544 25.24859 11461 ft 371 kts 237°
2026-04-23 13:28 60.16925 25.20785 12013 ft 376 kts 237°
2026-04-23 13:28 60.15269 25.16666 12541 ft 381 kts 237°
2026-04-23 13:28 60.13610 25.12552 13098 ft 385 kts 237°
2026-04-23 13:28 60.11917 25.08363 13663 ft 389 kts 237°
2026-04-23 13:29 60.10208 25.04134 14223 ft 392 kts 238°
2026-04-23 13:29 60.08485 24.99868 14763 ft 396 kts 238°
2026-04-23 13:29 60.06748 24.95563 15315 ft 399 kts 238°
2026-04-23 13:29 60.04997 24.91233 15835 ft 402 kts 238°
2026-04-23 13:30 60.03224 24.86855 16367 ft 406 kts 239°
2026-04-23 13:30 60.01440 24.82453 16851 ft 410 kts 239°
2026-04-23 13:30 59.99639 24.78016 17344 ft 413 kts 239°
2026-04-23 13:30 59.97824 24.73561 17834 ft 416 kts 239°
2026-04-23 13:31 59.95988 24.69064 18276 ft 419 kts 239°
2026-04-23 13:31 59.94141 24.64540 18755 ft 422 kts 239°
2026-04-23 13:31 59.92277 24.59986 19224 ft 425 kts 239°
2026-04-23 13:31 59.90393 24.55403 19682 ft 429 kts 239°
2026-04-23 13:32 59.88493 24.50795 20147 ft 432 kts 239°
2026-04-23 13:32 59.86581 24.46158 20590 ft 435 kts 239°
2026-04-23 13:32 59.84653 24.41484 21027 ft 438 kts 239°
2026-04-23 13:32 59.82713 24.36788 21437 ft 441 kts 239°
2026-04-23 13:33 59.80758 24.32066 21846 ft 444 kts 239°
2026-04-23 13:33 59.78783 24.27317 22276 ft 446 kts 238°
2026-04-23 13:33 59.76795 24.22561 22663 ft 449 kts 239°
2026-04-23 13:33 59.74797 24.17787 23037 ft 452 kts 238°
2026-04-23 13:34 59.72582 24.13256 23384 ft 464 kts 228°
2026-04-23 13:34 59.69987 24.09339 23727 ft 473 kts 222°
2026-04-23 13:34 59.67298 24.05545 24058 ft 476 kts 222°
2026-04-23 13:34 59.64598 24.01746 24405 ft 478 kts 222°
2026-04-23 13:35 59.61880 23.97928 24737 ft 480 kts 222°
2026-04-23 13:35 59.59153 23.94097 25063 ft 483 kts 222°
2026-04-23 13:35 59.56412 23.90240 25362 ft 485 kts 223°
2026-04-23 13:35 59.53656 23.86363 25680 ft 488 kts 222°
2026-04-23 13:36 59.50884 23.82473 25970 ft 491 kts 222°
2026-04-23 13:36 59.48149 23.78455 26267 ft 488 kts 228°
2026-04-23 13:36 59.45728 23.73857 26567 ft 481 kts 236°
2026-04-23 13:36 59.43467 23.68993 26872 ft 483 kts 236°
2026-04-23 13:37 59.41194 23.64119 27148 ft 485 kts 236°
2026-04-23 13:37 59.38904 23.59225 27427 ft 487 kts 236°
2026-04-23 13:37 59.36606 23.54325 27702 ft 489 kts 236°
2026-04-23 13:37 59.34295 23.49404 27966 ft 491 kts 236°
2026-04-23 13:38 59.31972 23.44475 28222 ft 493 kts 236°
2026-04-23 13:38 59.29637 23.39539 28484 ft 495 kts 236°
2026-04-23 13:38 59.27289 23.34589 28757 ft 497 kts 236°
2026-04-23 13:38 59.24932 23.29630 29017 ft 499 kts 236°
2026-04-23 13:39 59.22564 23.24666 29266 ft 500 kts 236°
2026-04-23 13:39 59.20184 23.19685 29512 ft 502 kts 236°
2026-04-23 13:39 59.17830 23.14759 29757 ft 504 kts 236°
2026-04-23 13:39 59.15439 23.09767 30085 ft 503 kts 236°
2026-04-23 13:40 59.13052 23.04797 30430 ft 502 kts 236°
2026-04-23 13:40 59.10661 22.99828 30759 ft 502 kts 236°
2026-04-23 13:40 59.08279 22.94880 31076 ft 502 kts 236°
2026-04-23 13:40 59.05892 22.89932 31370 ft 501 kts 236°
2026-04-23 13:41 59.03505 22.84997 31656 ft 501 kts 236°
2026-04-23 13:41 59.01116 22.80078 31978 ft 500 kts 236°
2026-04-23 13:41 58.98728 22.75175 32293 ft 499 kts 236°
2026-04-23 13:41 58.96341 22.70284 32578 ft 499 kts 236°
2026-04-23 13:42 58.93957 22.65407 32858 ft 499 kts 236°
2026-04-23 13:42 58.91569 22.60533 33127 ft 498 kts 236°
2026-04-23 13:42 58.89183 22.55670 33381 ft 498 kts 236°
2026-04-23 13:42 58.86798 22.50814 33639 ft 498 kts 237°
2026-04-23 13:43 58.84410 22.45960 33894 ft 498 kts 236°
2026-04-23 13:43 58.82025 22.41128 34138 ft 498 kts 236°
2026-04-23 13:43 58.79636 22.36300 34389 ft 497 kts 236°
2026-04-23 13:43 58.77244 22.31477 34629 ft 497 kts 236°
2026-04-23 13:44 58.74857 22.26672 34859 ft 496 kts 236°
2026-04-23 13:44 58.72468 22.21871 35087 ft 496 kts 236°
2026-04-23 13:44 58.70083 22.17091 35309 ft 496 kts 236°
2026-04-23 13:44 58.67691 22.12310 35530 ft 495 kts 236°
2026-04-23 13:45 58.66110 22.09158 35678 ft 495 kts 235°
2026-04-23 13:45 58.62917 22.02794 35946 ft 495 kts 235°
2026-04-23 13:45 58.60530 21.98042 36000 ft 495 kts 235°
2026-04-23 13:46 58.55747 21.88563 36000 ft 494 kts 235°
2026-04-23 13:46 58.50955 21.79125 35996 ft 495 kts 235°
2026-04-23 13:47 58.46183 21.69746 36000 ft 496 kts 235°
2026-04-23 13:47 58.41366 21.60329 36011 ft 496 kts 234°
2026-04-23 13:48 58.36535 21.50930 36016 ft 497 kts 234°
2026-04-23 13:48 58.31696 21.41532 36027 ft 497 kts 234°
2026-04-23 13:49 58.26846 21.32158 36048 ft 497 kts 234°
2026-04-23 13:49 58.21986 21.22815 36054 ft 497 kts 234°
2026-04-23 13:50 58.17120 21.13516 36047 ft 497 kts 234°
2026-04-23 13:50 58.12227 21.04273 36055 ft 497 kts 234°
2026-04-23 13:51 58.07328 20.95065 36056 ft 497 kts 234°
2026-04-23 13:51 58.02424 20.85892 36057 ft 496 kts 233°
2026-04-23 13:52 57.98347 20.78279 36067 ft 496 kts 233°
2026-04-23 13:52 57.93436 20.69135 36071 ft 496 kts 233°
2026-04-23 13:53 57.88516 20.60012 36063 ft 497 kts 233°
2026-04-23 13:53 57.83588 20.50904 36070 ft 497 kts 233°
2026-04-23 13:54 57.78643 20.41827 36069 ft 497 kts 233°
2026-04-23 13:54 57.73698 20.32779 36074 ft 497 kts 233°
2026-04-23 13:55 57.68737 20.23745 36075 ft 498 kts 233°
2026-04-23 13:55 57.63782 20.14720 36076 ft 497 kts 233°
2026-04-23 13:56 57.58847 20.05686 36080 ft 497 kts 233°
2026-04-23 13:56 57.53934 19.96748 36083 ft 497 kts 233°
2026-04-23 13:57 57.48976 19.87762 36089 ft 498 kts 233°
2026-04-23 13:57 57.44007 19.78802 36091 ft 497 kts 233°
2026-04-23 13:58 57.39044 19.69876 36094 ft 497 kts 232°
2026-04-23 13:58 57.34067 19.60970 36092 ft 497 kts 232°
2026-04-23 13:59 57.29082 19.52077 36096 ft 497 kts 232°
2026-04-23 13:59 57.24091 19.43212 36096 ft 498 kts 232°
2026-04-23 14:00 57.19934 19.35868 36093 ft 498 kts 232°
2026-04-23 14:00 57.14075 19.25556 36094 ft 498 kts 232°
2026-04-23 14:01 57.09056 19.16756 36099 ft 499 kts 232°
2026-04-23 14:01 57.04024 19.07971 36101 ft 499 kts 231°
2026-04-23 14:02 56.98988 18.99208 36095 ft 499 kts 231°
2026-04-23 14:02 56.93947 18.90465 36097 ft 499 kts 231°
2026-04-23 14:03 56.88901 18.81747 36098 ft 499 kts 231°
2026-04-23 14:03 56.83844 18.73051 36101 ft 499 kts 231°
2026-04-23 14:04 56.78773 18.64374 36099 ft 500 kts 231°
2026-04-23 14:04 56.73736 18.55778 36100 ft 500 kts 231°
2026-04-23 14:05 56.68655 18.47139 36100 ft 500 kts 231°
2026-04-23 14:05 56.63566 18.38523 36096 ft 500 kts 230°
2026-04-23 14:06 56.58462 18.29923 36105 ft 501 kts 230°
2026-04-23 14:06 56.53356 18.21334 36111 ft 501 kts 230°
2026-04-23 14:07 56.48245 18.12762 36116 ft 501 kts 230°
2026-04-23 14:07 56.40555 17.99949 36115 ft 502 kts 230°
2026-04-23 14:08 56.35411 17.91418 36121 ft 502 kts 230°
2026-04-23 14:08 56.30264 17.82913 36121 ft 502 kts 230°
2026-04-23 14:09 56.25111 17.74425 36116 ft 502 kts 229°
2026-04-23 14:09 56.19952 17.65970 36124 ft 503 kts 229°
2026-04-23 14:10 56.14771 17.57532 36129 ft 503 kts 229°
2026-04-23 14:10 56.09594 17.49137 36137 ft 502 kts 229°
2026-04-23 14:11 56.04426 17.40751 36145 ft 501 kts 229°
2026-04-23 14:11 55.99254 17.32369 36147 ft 502 kts 229°
2026-04-23 14:12 55.94104 17.24090 36127 ft 502 kts 228°
2026-04-23 14:12 55.88894 17.15764 36144 ft 502 kts 228°
2026-04-23 14:13 55.83694 17.07465 36145 ft 502 kts 228°
2026-04-23 14:13 55.78489 16.99181 36145 ft 502 kts 227°
2026-04-23 14:14 55.73274 16.90927 36144 ft 502 kts 227°
2026-04-23 14:14 55.68062 16.82708 36147 ft 501 kts 227°
2026-04-23 14:15 55.62856 16.74516 36151 ft 500 kts 227°
2026-04-23 14:15 55.57648 16.66351 36154 ft 500 kts 227°
2026-04-23 14:16 55.52440 16.58217 36153 ft 500 kts 227°
2026-04-23 14:16 55.47230 16.50115 36154 ft 499 kts 227°
2026-04-23 14:17 55.42027 16.42040 36154 ft 499 kts 227°
2026-04-23 14:17 55.36811 16.33994 36159 ft 498 kts 226°
2026-04-23 14:18 55.31601 16.25978 36158 ft 498 kts 226°
2026-04-23 14:18 55.26385 16.17982 36152 ft 498 kts 226°
2026-04-23 14:19 55.21164 16.09999 36150 ft 498 kts 226°
2026-04-23 14:19 55.15932 16.02040 36150 ft 499 kts 226°
2026-04-23 14:20 55.10692 15.94105 36157 ft 498 kts 225°
2026-04-23 14:20 55.05456 15.86183 36160 ft 498 kts 225°
2026-04-23 14:21 55.00215 15.78293 36168 ft 498 kts 225°
2026-04-23 14:21 54.94964 15.70433 36176 ft 498 kts 225°
2026-04-23 14:22 54.89389 15.63241 36173 ft 504 kts 212°
2026-04-23 14:22 54.83280 15.57280 36177 ft 503 kts 212°
2026-04-23 14:23 54.77169 15.51342 36177 ft 504 kts 212°
2026-04-23 14:23 54.71061 15.45407 36181 ft 504 kts 212°
2026-04-23 14:24 54.64947 15.39481 36184 ft 504 kts 212°
2026-04-23 14:24 54.58834 15.33563 36179 ft 504 kts 212°
2026-04-23 14:25 54.52717 15.27681 36184 ft 504 kts 212°
2026-04-23 14:25 54.46568 15.21822 36187 ft 506 kts 211°
2026-04-23 14:26 54.40422 15.15962 36190 ft 505 kts 211°
2026-04-23 14:26 54.34282 15.10094 36193 ft 505 kts 211°
2026-04-23 14:27 54.28139 15.04257 36198 ft 505 kts 211°
2026-04-23 14:27 54.22029 14.98500 36198 ft 504 kts 211°
2026-04-23 14:28 54.15892 14.92720 36198 ft 504 kts 211°
2026-04-23 14:28 54.09760 14.86968 36202 ft 503 kts 211°
2026-04-23 14:29 54.03627 14.81246 36204 ft 503 kts 211°
2026-04-23 14:29 53.97494 14.75523 36188 ft 503 kts 210°
2026-04-23 14:30 53.91363 14.69806 36181 ft 503 kts 210°
2026-04-23 14:30 53.85220 14.64117 36185 ft 503 kts 210°
2026-04-23 14:31 53.79078 14.58456 36196 ft 502 kts 210°
2026-04-23 14:31 53.72939 14.52811 36202 ft 502 kts 210°
2026-04-23 14:32 53.66806 14.47187 36202 ft 502 kts 210°
2026-04-23 14:32 53.60669 14.41579 36203 ft 502 kts 210°
2026-04-23 14:33 53.54532 14.35995 36195 ft 501 kts 210°
2026-04-23 14:33 53.48400 14.30422 36192 ft 501 kts 210°
2026-04-23 14:34 53.42278 14.24831 36188 ft 501 kts 210°
2026-04-23 14:34 53.36157 14.19238 36188 ft 501 kts 210°
2026-04-23 14:35 53.30036 14.13667 36180 ft 501 kts 210°
2026-04-23 14:35 53.23899 14.08109 36181 ft 502 kts 209°
2026-04-23 14:36 53.17751 14.02574 36182 ft 503 kts 209°
2026-04-23 14:36 53.11595 13.97045 36192 ft 502 kts 209°
2026-04-23 14:37 53.05448 13.91527 36205 ft 502 kts 209°
2026-04-23 14:37 52.99349 13.86064 36202 ft 501 kts 208°
2026-04-23 14:38 52.93211 13.80588 36206 ft 501 kts 208°
2026-04-23 14:38 52.87063 13.75146 36208 ft 501 kts 208°
2026-04-23 14:39 52.80914 13.69725 36213 ft 501 kts 208°
2026-04-23 14:39 52.74721 13.64256 36221 ft 501 kts 208°
2026-04-23 14:40 52.68605 13.58881 36223 ft 502 kts 207°
2026-04-23 14:40 52.63434 13.54357 36225 ft 502 kts 207°
2026-04-23 14:41 52.57260 13.48968 36232 ft 502 kts 207°
2026-04-23 14:41 52.51090 13.43591 36237 ft 503 kts 207°
2026-04-23 14:42 52.44902 13.38212 36237 ft 503 kts 207°
2026-04-23 14:42 52.38717 13.32848 36240 ft 503 kts 207°
2026-04-23 14:43 52.32536 13.27508 36239 ft 502 kts 207°
2026-04-23 14:43 52.26353 13.22203 36240 ft 502 kts 207°
2026-04-23 14:44 52.20210 13.16952 36240 ft 502 kts 207°
2026-04-23 14:44 52.14033 13.11672 36241 ft 501 kts 207°
2026-04-23 14:45 52.07862 13.06402 36243 ft 501 kts 207°
2026-04-23 14:45 52.01695 13.01155 36240 ft 500 kts 207°
2026-04-23 14:46 51.95534 12.95945 36237 ft 499 kts 206°
2026-04-23 14:46 51.89363 12.90746 36234 ft 500 kts 206°
2026-04-23 14:47 51.83192 12.85557 36236 ft 500 kts 206°
2026-04-23 14:47 51.77024 12.80386 36243 ft 499 kts 206°
2026-04-23 14:48 51.70862 12.75237 36248 ft 499 kts 206°
2026-04-23 14:48 51.64884 12.69574 36251 ft 500 kts 216°
2026-04-23 14:49 51.59283 12.62949 36253 ft 500 kts 216°
2026-04-23 14:49 51.53673 12.56360 36255 ft 499 kts 216°
2026-04-23 14:50 51.48060 12.49792 36258 ft 499 kts 215°
2026-04-23 14:50 51.42448 12.43241 36262 ft 499 kts 215°
2026-04-23 14:51 51.36831 12.36699 36266 ft 499 kts 215°
2026-04-23 14:51 51.31216 12.30176 36268 ft 499 kts 215°
2026-04-23 14:52 51.25595 12.23672 36268 ft 499 kts 215°
2026-04-23 14:52 51.19973 12.17170 36269 ft 500 kts 215°
2026-04-23 14:53 51.14341 12.10698 36270 ft 499 kts 215°
2026-04-23 14:53 51.08701 12.04251 36267 ft 499 kts 215°
2026-04-23 14:54 51.03071 11.97826 36266 ft 498 kts 214°
2026-04-23 14:54 50.97435 11.91413 36279 ft 498 kts 214°
2026-04-23 14:55 50.91817 11.85035 36287 ft 496 kts 214°
2026-04-23 14:55 50.86196 11.78678 36287 ft 495 kts 214°
2026-04-23 14:56 50.80585 11.72344 36288 ft 496 kts 214°
2026-04-23 14:56 50.74973 11.66027 36285 ft 495 kts 214°
2026-04-23 14:57 50.69358 11.59725 36286 ft 495 kts 214°
2026-04-23 14:57 50.63742 11.53440 36287 ft 495 kts 214°
2026-04-23 14:58 50.58127 11.47174 36277 ft 495 kts 214°
2026-04-23 14:58 50.52550 11.40977 36271 ft 494 kts 213°
2026-04-23 14:59 50.46926 11.34756 36274 ft 494 kts 214°
2026-04-23 14:59 50.41304 11.28546 36275 ft 494 kts 213°
2026-04-23 15:00 50.35684 11.22338 36273 ft 494 kts 213°
2026-04-23 15:00 50.30057 11.16155 36279 ft 494 kts 213°
2026-04-23 15:01 50.24428 11.10002 36279 ft 494 kts 213°
2026-04-23 15:01 50.18805 11.03852 36281 ft 493 kts 213°
2026-04-23 15:02 50.13187 10.97728 36287 ft 492 kts 213°
2026-04-23 15:02 50.07570 10.91634 36307 ft 492 kts 213°
2026-04-23 15:03 50.01957 10.85570 36315 ft 491 kts 213°
2026-04-23 15:03 49.96351 10.79506 36305 ft 491 kts 213°
2026-04-23 15:04 49.90747 10.73467 36304 ft 490 kts 212°
2026-04-23 15:04 49.85148 10.67455 36306 ft 489 kts 212°
2026-04-23 15:05 49.79550 10.61474 36308 ft 489 kts 212°
2026-04-23 15:05 49.73816 10.55896 36323 ft 484 kts 202°
2026-04-23 15:06 49.67550 10.52260 36317 ft 480 kts 195°
2026-04-23 15:06 49.61236 10.48879 36315 ft 481 kts 195°
2026-04-23 15:07 49.54921 10.45495 36328 ft 480 kts 195°
2026-04-23 15:07 49.48609 10.42098 36314 ft 480 kts 195°
2026-04-23 15:08 49.42302 10.38720 36329 ft 480 kts 195°
2026-04-23 15:09 49.32833 10.33666 36314 ft 480 kts 195°
2026-04-23 15:09 49.26519 10.30313 36314 ft 480 kts 195°
2026-04-23 15:10 49.21265 10.27537 36327 ft 480 kts 195°
2026-04-23 15:10 49.17126 10.24920 36329 ft 484 kts 206°
2026-04-23 15:10 49.14275 10.22158 36328 ft 487 kts 216°
2026-04-23 15:11 49.09560 10.14854 36317 ft 488 kts 231°
2026-04-23 15:11 49.05305 10.06766 36319 ft 489 kts 230°
2026-04-23 15:12 49.01021 9.98720 36315 ft 489 kts 230°
2026-04-23 15:12 48.96737 9.90692 36318 ft 488 kts 230°
2026-04-23 15:13 48.92435 9.82621 36325 ft 487 kts 230°
2026-04-23 15:13 48.88197 9.74691 36326 ft 486 kts 229°
2026-04-23 15:14 48.83929 9.66733 36325 ft 486 kts 229°
2026-04-23 15:14 48.79660 9.58797 36319 ft 485 kts 230°
2026-04-23 15:15 48.75386 9.50876 36321 ft 485 kts 230°
2026-04-23 15:15 48.71110 9.42975 36328 ft 485 kts 230°
2026-04-23 15:16 48.66828 9.35092 36319 ft 485 kts 230°
2026-04-23 15:16 48.62041 9.28015 36311 ft 481 kts 213°
2026-04-23 15:17 48.56161 9.23442 36319 ft 473 kts 194°
2026-04-23 15:17 48.49853 9.20644 36318 ft 472 kts 193°
2026-04-23 15:18 48.43550 9.17869 36310 ft 472 kts 193°
2026-04-23 15:18 48.37237 9.15096 36326 ft 473 kts 193°
2026-04-23 15:19 48.30921 9.12328 36311 ft 473 kts 192°
2026-04-23 15:19 48.24599 9.09581 36307 ft 473 kts 193°
2026-04-23 15:20 48.19347 9.07285 36307 ft 473 kts 193°
2026-04-23 15:20 48.11972 9.04064 36317 ft 472 kts 193°
2026-04-23 15:21 48.05669 9.01331 36306 ft 471 kts 193°
2026-04-23 15:21 47.99367 8.98607 36307 ft 471 kts 193°
2026-04-23 15:22 47.93074 8.95901 36307 ft 471 kts 192°
2026-04-23 15:22 47.86772 8.93204 36309 ft 471 kts 192°
2026-04-23 15:23 47.80477 8.90510 36308 ft 470 kts 192°
2026-04-23 15:23 47.74208 8.87698 36314 ft 471 kts 194°
2026-04-23 15:24 47.68003 8.84569 36313 ft 471 kts 196°
2026-04-23 15:24 47.61800 8.81391 36302 ft 471 kts 195°
2026-04-23 15:25 47.56643 8.78827 36309 ft 471 kts 195°
2026-04-23 15:25 47.50422 8.75795 36590 ft 470 kts 195°
2026-04-23 15:25 47.47320 8.74284 36862 ft 469 kts 195°
2026-04-23 15:26 47.44229 8.72774 37159 ft 467 kts 195°
2026-04-23 15:26 47.41148 8.71271 37291 ft 465 kts 195°
2026-04-23 15:26 47.38086 8.69776 37303 ft 462 kts 195°
2026-04-23 15:27 47.32016 8.66803 37304 ft 459 kts 195°
2026-04-23 15:27 47.25950 8.63853 37291 ft 458 kts 195°
2026-04-23 15:28 47.19889 8.60922 37291 ft 459 kts 195°
2026-04-23 15:28 47.13831 8.57995 37272 ft 458 kts 195°
2026-04-23 15:29 47.07770 8.55071 37274 ft 458 kts 193°
2026-04-23 15:29 47.01549 8.53711 37277 ft 449 kts 175°
2026-04-23 15:30 46.95353 8.54474 37277 ft 447 kts 170°
2026-04-23 15:30 46.89163 8.55364 37278 ft 447 kts 171°
2026-04-23 15:31 46.82972 8.56233 37277 ft 447 kts 171°
2026-04-23 15:31 46.76781 8.57108 37268 ft 446 kts 171°
2026-04-23 15:32 46.70595 8.57996 37268 ft 447 kts 171°
2026-04-23 15:32 46.64410 8.58886 37261 ft 446 kts 171°
2026-04-23 15:33 46.58226 8.59780 37249 ft 447 kts 171°
2026-04-23 15:33 46.52037 8.60651 37240 ft 447 kts 171°
2026-04-23 15:34 46.45845 8.61521 37224 ft 447 kts 171°
2026-04-23 15:34 46.39657 8.62395 37215 ft 447 kts 171°
2026-04-23 15:35 46.33468 8.63272 37201 ft 447 kts 171°
2026-04-23 15:35 46.27283 8.64134 37180 ft 447 kts 171°
2026-04-23 15:36 46.21087 8.64998 37178 ft 447 kts 171°
2026-04-23 15:36 46.14902 8.65865 37172 ft 446 kts 171°
2026-04-23 15:37 46.08678 8.66119 37159 ft 452 kts 183°
2026-04-23 15:37 46.02446 8.64848 37159 ft 453 kts 185°
2026-04-23 15:38 45.96212 8.63581 37161 ft 452 kts 185°
2026-04-23 15:38 45.89974 8.62316 37161 ft 452 kts 185°
2026-04-23 15:39 45.83734 8.61044 37167 ft 453 kts 185°
2026-04-23 15:39 45.77497 8.59775 37171 ft 453 kts 185°
2026-04-23 15:40 45.71257 8.58514 37172 ft 453 kts 185°
2026-04-23 15:40 45.65011 8.57261 37170 ft 453 kts 185°
2026-04-23 15:41 45.58771 8.55985 37173 ft 453 kts 185°
2026-04-23 15:41 45.52532 8.54729 37168 ft 453 kts 185°
2026-04-23 15:42 45.46282 8.53484 37176 ft 454 kts 185°
2026-04-23 15:42 45.40029 8.52228 37179 ft 454 kts 185°
2026-04-23 15:43 45.33769 8.50987 37173 ft 454 kts 185°
2026-04-23 15:43 45.27511 8.49737 37181 ft 454 kts 185°
2026-04-23 15:44 45.21254 8.48482 37182 ft 454 kts 185°
2026-04-23 15:44 45.14991 8.47239 37185 ft 455 kts 185°
2026-04-23 15:45 45.08730 8.46017 37186 ft 454 kts 185°
2026-04-23 15:45 45.02460 8.44781 37183 ft 455 kts 185°
2026-04-23 15:46 44.96164 8.43536 36516 ft 462 kts 185°
2026-04-23 15:46 44.92996 8.42907 36206 ft 455 kts 185°
2026-04-23 15:46 44.89877 8.42286 35841 ft 450 kts 185°
2026-04-23 15:46 44.86786 8.41672 35374 ft 448 kts 185°
2026-04-23 15:47 44.83703 8.41064 34897 ft 446 kts 185°
2026-04-23 15:47 44.80640 8.40462 34452 ft 443 kts 184°
2026-04-23 15:47 44.77601 8.39870 34033 ft 439 kts 184°
2026-04-23 15:47 44.74585 8.39283 33623 ft 436 kts 184°
2026-04-23 15:48 44.71597 8.38702 33189 ft 432 kts 184°
2026-04-23 15:48 44.68624 8.38125 32750 ft 429 kts 184°
2026-04-23 15:48 44.65681 8.37549 32313 ft 426 kts 184°
2026-04-23 15:48 44.62757 8.36976 31877 ft 422 kts 184°
2026-04-23 15:49 44.59855 8.36409 31399 ft 421 kts 184°
2026-04-23 15:49 44.56957 8.35848 30873 ft 420 kts 184°
2026-04-23 15:49 44.54072 8.35293 30349 ft 419 kts 184°
2026-04-23 15:49 44.51185 8.34738 29818 ft 417 kts 185°
2026-04-23 15:50 44.48315 8.34186 29299 ft 416 kts 185°
2026-04-23 15:50 44.45445 8.33629 28771 ft 416 kts 185°
2026-04-23 15:50 44.42584 8.33070 28245 ft 414 kts 185°
2026-04-23 15:50 44.39731 8.32514 27714 ft 414 kts 185°
2026-04-23 15:51 44.36882 8.31961 27193 ft 413 kts 185°
2026-04-23 15:51 44.34054 8.31266 26658 ft 414 kts 193°
2026-04-23 15:51 44.31367 8.29810 26132 ft 416 kts 206°
2026-04-23 15:51 44.28967 8.27553 25607 ft 417 kts 220°
2026-04-23 15:52 44.27014 8.24646 25089 ft 418 kts 233°
2026-04-23 15:52 44.25362 8.21309 24557 ft 417 kts 235°
2026-04-23 15:52 44.23719 8.17975 24035 ft 417 kts 235°
2026-04-23 15:52 44.22072 8.14652 23509 ft 416 kts 235°
2026-04-23 15:53 44.20399 8.11296 22974 ft 416 kts 235°
2026-04-23 15:53 44.18748 8.08000 22483 ft 414 kts 235°
2026-04-23 15:53 44.17106 8.04717 22018 ft 412 kts 235°
2026-04-23 15:53 44.15474 8.01454 21546 ft 410 kts 235°
2026-04-23 15:54 44.13845 7.98201 21060 ft 408 kts 235°
2026-04-23 15:54 44.12228 7.94976 20589 ft 406 kts 235°
2026-04-23 15:54 44.10640 7.91808 20108 ft 403 kts 235°
2026-04-23 15:54 44.09026 7.88580 19633 ft 399 kts 236°
2026-04-23 15:55 44.07467 7.85461 19048 ft 386 kts 236°
2026-04-23 15:55 44.05957 7.82445 18466 ft 375 kts 236°
2026-04-23 15:55 44.04482 7.79518 17869 ft 365 kts 236°
2026-04-23 15:55 44.03046 7.76679 17273 ft 365 kts 236°
2026-04-23 15:56 44.01586 7.73786 16728 ft 365 kts 236°
2026-04-23 15:56 44.00148 7.70929 16481 ft 358 kts 236°
2026-04-23 15:56 43.98723 7.68101 16225 ft 356 kts 236°
2026-04-23 15:56 43.97306 7.65285 16002 ft 354 kts 236°
2026-04-23 15:57 43.95897 7.62487 15794 ft 354 kts 236°
2026-04-23 15:57 43.94490 7.59701 15592 ft 353 kts 236°
2026-04-23 15:57 43.93082 7.56915 15386 ft 352 kts 236°
2026-04-23 15:57 43.91678 7.54143 15188 ft 351 kts 236°
2026-04-23 15:58 43.90277 7.51379 15070 ft 350 kts 235°
2026-04-23 15:58 43.88880 7.48624 15003 ft 350 kts 235°
2026-04-23 15:58 43.87482 7.45869 14916 ft 349 kts 234°
2026-04-23 15:58 43.85833 7.43435 14834 ft 348 kts 215°
2026-04-23 15:59 43.83678 7.41956 14770 ft 345 kts 193°
2026-04-23 15:59 43.81310 7.41638 14711 ft 341 kts 172°
2026-04-23 15:59 43.79043 7.42471 14639 ft 335 kts 151°
2026-04-23 15:59 43.77107 7.44278 14547 ft 331 kts 137°
2026-04-23 16:00 43.75345 7.46258 14392 ft 330 kts 137°
2026-04-23 16:00 43.73534 7.48284 14223 ft 330 kts 138°
2026-04-23 16:00 43.71774 7.50247 14057 ft 329 kts 138°
2026-04-23 16:00 43.69996 7.52237 13894 ft 328 kts 136°
2026-04-23 16:01 43.68438 7.54492 13746 ft 323 kts 123°
2026-04-23 16:01 43.67301 7.57128 13581 ft 318 kts 111°
2026-04-23 16:01 43.66536 7.59977 13417 ft 316 kts 106°
2026-04-23 16:01 43.65805 7.62838 13264 ft 315 kts 107°
2026-04-23 16:02 43.65075 7.65686 13109 ft 314 kts 107°
2026-04-23 16:02 43.64344 7.68528 12961 ft 314 kts 107°
2026-04-23 16:02 43.63614 7.71367 12798 ft 314 kts 107°
2026-04-23 16:02 43.62884 7.74202 12648 ft 313 kts 107°
2026-04-23 16:03 43.62155 7.77023 12500 ft 312 kts 107°
2026-04-23 16:03 43.61427 7.79841 12350 ft 311 kts 107°
2026-04-23 16:03 43.60699 7.82651 12198 ft 311 kts 107°
2026-04-23 16:03 43.59971 7.85453 12041 ft 309 kts 107°
2026-04-23 16:04 43.59246 7.88246 11908 ft 309 kts 107°
2026-04-23 16:04 43.58524 7.91032 11743 ft 309 kts 107°
2026-04-23 16:04 43.57802 7.93819 11591 ft 309 kts 107°
2026-04-23 16:04 43.57077 7.96605 11439 ft 308 kts 107°
2026-04-23 16:05 43.56588 7.98484 11336 ft 308 kts 107°
2026-04-23 16:05 43.55630 8.02165 11140 ft 308 kts 108°
2026-04-23 16:05 43.54615 8.04764 10979 ft 312 kts 127°
2026-04-23 16:05 43.52926 8.06649 10829 ft 317 kts 151°
2026-04-23 16:06 43.50797 8.07453 10659 ft 321 kts 176°
2026-04-23 16:06 43.48593 8.07012 10480 ft 323 kts 200°
2026-04-23 16:06 43.46718 8.05419 10322 ft 313 kts 221°
2026-04-23 16:06 43.45103 8.03458 10075 ft 307 kts 222°
2026-04-23 16:07 43.43520 8.01533 9970 ft 303 kts 222°
2026-04-23 16:07 43.41943 7.99618 9819 ft 302 kts 221°
2026-04-23 16:07 43.40371 7.97713 9646 ft 301 kts 223°
2026-04-23 16:07 43.39448 7.96303 9538 ft 299 kts 237°
2026-04-23 16:08 43.38608 7.93733 9383 ft 295 kts 259°
2026-04-23 16:08 43.38519 7.90951 9230 ft 291 kts 281°
2026-04-23 16:08 43.39142 7.88346 9078 ft 286 kts 300°
2026-04-23 16:08 43.40126 7.85967 8933 ft 286 kts 302°
2026-04-23 16:09 43.41032 7.83539 8796 ft 286 kts 294°
2026-04-23 16:09 43.41618 7.80923 8661 ft 287 kts 283°
2026-04-23 16:09 43.41861 7.78190 8509 ft 288 kts 276°
2026-04-23 16:09 43.42031 7.75449 8397 ft 288 kts 277°
2026-04-23 16:10 43.42209 7.72713 8324 ft 287 kts 277°
2026-04-23 16:10 43.42390 7.69980 8247 ft 287 kts 276°
2026-04-23 16:10 43.42569 7.67250 8171 ft 286 kts 277°
2026-04-23 16:10 43.42748 7.64523 8089 ft 286 kts 277°
2026-04-23 16:11 43.42928 7.61800 7926 ft 285 kts 277°
2026-04-23 16:11 43.43106 7.59090 7762 ft 284 kts 276°
2026-04-23 16:11 43.43280 7.56386 7592 ft 284 kts 276°
2026-04-23 16:11 43.43453 7.53686 7407 ft 283 kts 276°
2026-04-23 16:12 43.43625 7.50996 7241 ft 282 kts 276°
2026-04-23 16:12 43.43796 7.48314 7073 ft 281 kts 276°
2026-04-23 16:12 43.43966 7.45641 6897 ft 280 kts 276°
2026-04-23 16:12 43.44134 7.42970 6722 ft 280 kts 276°
2026-04-23 16:13 43.44301 7.40313 6551 ft 279 kts 276°
2026-04-23 16:13 43.44630 7.35009 6210 ft 277 kts 276°
2026-04-23 16:13 43.44794 7.32369 6035 ft 277 kts 276°
2026-04-23 16:14 43.44956 7.29735 5877 ft 276 kts 276°
2026-04-23 16:14 43.45114 7.27110 5709 ft 275 kts 275°
2026-04-23 16:14 43.45270 7.24488 5532 ft 274 kts 276°
2026-04-23 16:14 43.45427 7.21872 5355 ft 274 kts 275°
2026-04-23 16:15 43.45584 7.19269 5199 ft 273 kts 275°
2026-04-23 16:15 43.45740 7.16677 5029 ft 269 kts 275°
2026-04-23 16:15 43.45893 7.14145 4851 ft 261 kts 275°
2026-04-23 16:15 43.46040 7.11695 4671 ft 253 kts 275°
2026-04-23 16:16 43.46183 7.09317 4497 ft 245 kts 275°
2026-04-23 16:16 43.46322 7.07019 4323 ft 236 kts 275°
2026-04-23 16:16 43.46453 7.04835 4175 ft 221 kts 275°
2026-04-23 16:16 43.46825 7.02876 4069 ft 208 kts 300°
2026-04-23 16:17 43.47761 7.01416 3984 ft 203 kts 327°
2026-04-23 16:17 43.49063 7.00707 3999 ft 203 kts 353°
2026-04-23 16:17 43.50456 7.00861 3989 ft 202 kts 19°
2026-04-23 16:17 43.51645 7.01854 3981 ft 202 kts 44°
2026-04-23 16:18 43.52624 7.03186 3681 ft 199 kts 45°
2026-04-23 16:18 43.53589 7.04515 3274 ft 193 kts 45°
2026-04-23 16:18 43.54526 7.05799 2933 ft 186 kts 45°
2026-04-23 16:18 43.55423 7.07025 2703 ft 178 kts 45°
2026-04-23 16:19 43.56290 7.08211 2481 ft 172 kts 46°
2026-04-23 16:19 43.57127 7.09357 2255 ft 168 kts 46°
2026-04-23 16:19 43.57944 7.10477 2050 ft 161 kts 45°
2026-04-23 16:19 43.58726 7.11546 1825 ft 157 kts 46°
2026-04-23 16:20 43.59494 7.12600 1618 ft 155 kts 46°
2026-04-23 16:20 43.60258 7.13646 1416 ft 154 kts 47°
2026-04-23 16:20 43.61022 7.14695 1203 ft 155 kts 46°
2026-04-23 16:20 43.61788 7.15748 1003 ft 155 kts 47°
2026-04-23 16:21 43.62552 7.16797 790 ft 155 kts 46°
2026-04-23 16:21 43.63310 7.17842 582 ft 153 kts 46°
2026-04-23 16:21 43.64066 7.18876 379 ft 153 kts 46°
2026-04-23 16:21 43.64819 7.19908 173 ft 152 kts 46°
2026-04-23 16:22 43.65562 7.20928 28 ft 146 kts 46°
2026-04-23 16:22 43.66180 7.21780 22 ft 102 kts 45°
2026-04-23 16:22 43.66556 7.22293 22 ft 52 kts 45°
2026-04-23 16:22 43.66686 7.22473 21 ft 18 kts 44°
2026-04-23 16:23 43.66768 7.22463 22 ft 9 kts 315°
2026-04-23 16:23 43.66801 7.22416 23 ft 6 kts 315°
2026-04-23 16:23 43.66822 7.22368 24 ft 6 kts 282°
2026-04-23 16:23 43.66802 7.22314 22 ft 7 kts 226°
2026-04-23 16:24 43.66759 7.22254 23 ft 11 kts 225°
2026-04-23 16:24 43.66691 7.22160 22 ft 16 kts 225°
2026-04-23 16:24 43.66610 7.22050 23 ft 17 kts 224°
2026-04-23 16:24 43.66523 7.21930 23 ft 18 kts 225°
2026-04-23 16:25 43.66447 7.21826 23 ft 14 kts 224°
2026-04-23 16:25 43.66376 7.21729 23 ft 15 kts 225°
2026-04-23 16:25 43.66299 7.21622 24 ft 16 kts 225°
2026-04-23 16:25 43.66215 7.21505 23 ft 18 kts 225°
2026-04-23 16:26 43.66124 7.21381 23 ft 19 kts 224°
2026-04-23 16:26 43.66027 7.21249 24 ft 14 kts 226°
2026-04-23 16:26 43.65961 7.21158 22 ft 14 kts 225°
2026-04-23 16:26 43.65890 7.21057 23 ft 15 kts 223°
2026-04-23 16:27 43.65821 7.20964 23 ft 13 kts 225°
2026-04-23 16:27 43.65796 7.20887 22 ft 7 kts 287°
2026-04-23 16:27 43.65836 7.20858 24 ft 6 kts 349°
2026-04-23 16:27 43.65872 7.20850 22 ft 5 kts 351°
2026-04-23 16:28 43.65910 7.20842 22 ft 6 kts 352°
2026-04-23 16:28 43.65954 7.20833 23 ft 7 kts 350°
2026-04-23 16:28 43.66003 7.20821 22 ft 8 kts 351°
2026-04-23 16:28 43.66064 7.20808 22 ft 10 kts 350°
2026-04-23 16:29 43.66133 7.20792 22 ft 10 kts 351°
2026-04-23 16:29 43.66168 7.20784 22 ft 3 kts 346°
2026-04-23 16:29 43.66178 7.20773 22 ft 1 kts 310°
2026-04-23 16:29 43.66181 7.20758 22 ft 2 kts 281°
2026-04-23 16:30 43.66178 7.20729 22 ft 4 kts 260°
2026-04-23 16:30 43.66172 7.20685 22 ft 2 kts 260°
2026-04-23 16:30 43.66172 7.20680 22 ft 0 kts 260°
2026-04-23 16:30 43.66172 7.20679 22 ft 0 kts 260°